GEC8266 EDDF-GMMN

Flight info

Callsign GEC8266
Flight time N/A
Altitude 36000
Route ANEKI2L/18 ANEKI Y163 HERBI Y164 MOPAN DCT LUTIX DCT BENOT DCT NEMOS DCT NINTU DCT MEBAK DCT REPSI DCT LERGA DCT MINSO DCT NARAK DCT AGN DCT MAQAB DCT TIVLI N869 GALTO UB11 TUSOR
Aircraft MD11/H-SDE1E2E3FGHIJ2J3J4J5M1RWXY/LB1D1

Departure

Time 2026-05-01 12:39
Airport Frankfurt Main Airport (EDDF)

Arrival

Time N/A
Airport Mohammed V International Airport (GMMN)
Time Latitude Longitude Altitude Speed Heading
2026-05-01 12:03 50.04056 8.54769 368 ft 0 kts 69°
2026-05-01 12:24 50.04053 8.54754 377 ft 3 kts 63°
2026-05-01 12:25 50.04044 8.54727 372 ft 3 kts 69°
2026-05-01 12:25 50.04034 8.54687 373 ft 3 kts 90°
2026-05-01 12:25 50.04034 8.54675 374 ft 3 kts 117°
2026-05-01 12:26 50.04042 8.54656 371 ft 3 kts 150°
2026-05-01 12:26 50.04072 8.54635 372 ft 0 kts 159°
2026-05-01 12:30 50.04071 8.54635 372 ft 1 kts 159°
2026-05-01 12:31 50.04049 8.54649 374 ft 6 kts 159°
2026-05-01 12:31 50.04004 8.54674 372 ft 7 kts 159°
2026-05-01 12:31 50.03960 8.54684 375 ft 6 kts 192°
2026-05-01 12:31 50.03927 8.54627 374 ft 9 kts 241°
2026-05-01 12:32 50.03900 8.54525 376 ft 10 kts 250°
2026-05-01 12:32 50.03849 8.54348 376 ft 10 kts 235°
2026-05-01 12:32 50.03805 8.54239 376 ft 13 kts 244°
2026-05-01 12:33 50.03767 8.54090 374 ft 16 kts 249°
2026-05-01 12:33 50.03722 8.53911 375 ft 19 kts 249°
2026-05-01 12:33 50.03675 8.53706 374 ft 20 kts 250°
2026-05-01 12:33 50.03627 8.53514 373 ft 18 kts 249°
2026-05-01 12:34 50.03586 8.53344 376 ft 16 kts 249°
2026-05-01 12:34 50.03551 8.53196 372 ft 13 kts 249°
2026-05-01 12:34 50.03520 8.53063 378 ft 14 kts 250°
2026-05-01 12:34 50.03487 8.52925 374 ft 13 kts 249°
2026-05-01 12:35 50.03458 8.52820 375 ft 5 kts 245°
2026-05-01 12:35 50.03457 8.52816 375 ft 0 kts 245°
2026-05-01 12:35 50.03456 8.52814 375 ft 1 kts 246°
2026-05-01 12:35 50.03447 8.52783 379 ft 5 kts 246°
2026-05-01 12:36 50.03434 8.52735 379 ft 5 kts 248°
2026-05-01 12:36 50.03421 8.52684 376 ft 5 kts 248°
2026-05-01 12:36 50.03407 8.52629 378 ft 6 kts 248°
2026-05-01 12:36 50.03375 8.52597 379 ft 6 kts 186°
2026-05-01 12:37 50.03363 8.52597 379 ft 0 kts 179°
2026-05-01 12:38 50.03298 8.52598 377 ft 37 kts 179°
2026-05-01 12:38 50.02756 8.52598 377 ft 118 kts 180°
2026-05-01 12:39 50.01711 8.52607 381 ft 177 kts 179°
2026-05-01 12:39 50.00460 8.52570 1053 ft 179 kts 177°
2026-05-01 12:39 49.99212 8.52628 2025 ft 180 kts 173°
2026-05-01 12:39 49.97931 8.52756 2807 ft 197 kts 173°
2026-05-01 12:40 49.96444 8.52860 3150 ft 228 kts 174°
2026-05-01 12:40 49.94797 8.52988 3706 ft 245 kts 173°
2026-05-01 12:40 49.93054 8.53133 4560 ft 252 kts 175°
2026-05-01 12:40 49.91321 8.53277 5730 ft 247 kts 175°
2026-05-01 12:41 49.89568 8.53438 6611 ft 257 kts 176°
2026-05-01 12:41 49.87774 8.53550 7467 ft 260 kts 176°
2026-05-01 12:41 49.85944 8.53660 8251 ft 265 kts 176°
2026-05-01 12:41 49.84112 8.53773 9026 ft 269 kts 176°
2026-05-01 12:42 49.82224 8.53898 9790 ft 274 kts 176°
2026-05-01 12:42 49.80310 8.54028 10543 ft 277 kts 175°
2026-05-01 12:42 49.78371 8.54106 11230 ft 281 kts 179°
2026-05-01 12:42 49.76360 8.53955 11562 ft 301 kts 182°
2026-05-01 12:43 49.74186 8.53691 11692 ft 325 kts 182°
2026-05-01 12:43 49.71863 8.53380 11835 ft 345 kts 183°
2026-05-01 12:43 49.69413 8.53045 12116 ft 358 kts 183°
2026-05-01 12:43 49.66917 8.52702 12693 ft 363 kts 183°
2026-05-01 12:44 49.64386 8.52358 13282 ft 367 kts 183°
2026-05-01 12:44 49.61858 8.52018 13850 ft 371 kts 182°
2026-05-01 12:44 49.56670 8.51327 14897 ft 378 kts 182°
2026-05-01 12:45 49.51385 8.50628 15965 ft 384 kts 182°
2026-05-01 12:45 49.48713 8.50276 16497 ft 387 kts 182°
2026-05-01 12:45 49.46023 8.49922 17023 ft 390 kts 183°
2026-05-01 12:46 49.43311 8.49565 17554 ft 393 kts 183°
2026-05-01 12:46 49.40585 8.49207 18121 ft 394 kts 183°
2026-05-01 12:46 49.37843 8.48848 18648 ft 397 kts 183°
2026-05-01 12:46 49.35081 8.48486 19077 ft 400 kts 183°
2026-05-01 12:47 49.32337 8.48127 19505 ft 403 kts 183°
2026-05-01 12:47 49.29531 8.47764 19901 ft 406 kts 183°
2026-05-01 12:47 49.26704 8.47397 20324 ft 409 kts 183°
2026-05-01 12:47 49.23856 8.47026 20732 ft 412 kts 183°
2026-05-01 12:48 49.20991 8.46653 21132 ft 415 kts 183°
2026-05-01 12:48 49.18099 8.46276 21529 ft 419 kts 183°
2026-05-01 12:48 49.15183 8.45897 21926 ft 422 kts 184°
2026-05-01 12:48 49.12240 8.45514 22335 ft 426 kts 183°
2026-05-01 12:49 49.09277 8.45128 22728 ft 429 kts 183°
2026-05-01 12:49 49.06292 8.44648 23117 ft 433 kts 187°
2026-05-01 12:49 49.03350 8.43848 23534 ft 437 kts 190°
2026-05-01 12:49 49.00367 8.42844 23936 ft 441 kts 192°
2026-05-01 12:50 48.97373 8.41763 24305 ft 443 kts 192°
2026-05-01 12:50 48.94383 8.40672 24672 ft 446 kts 192°
2026-05-01 12:50 48.91354 8.39577 25064 ft 448 kts 192°
2026-05-01 12:50 48.88310 8.38493 25445 ft 451 kts 192°
2026-05-01 12:51 48.85252 8.37418 25815 ft 454 kts 192°
2026-05-01 12:51 48.82163 8.36341 26182 ft 456 kts 192°
2026-05-01 12:51 48.75944 8.34142 26913 ft 462 kts 193°
2026-05-01 12:52 48.72809 8.33003 27247 ft 466 kts 193°
2026-05-01 12:52 48.66523 8.30703 28026 ft 470 kts 193°
2026-05-01 12:52 48.63336 8.29539 28394 ft 473 kts 193°
2026-05-01 12:53 48.56896 8.27193 29139 ft 478 kts 193°
2026-05-01 12:53 48.53659 8.26017 29507 ft 481 kts 193°
2026-05-01 12:53 48.50388 8.24831 29828 ft 484 kts 193°
2026-05-01 12:54 48.47104 8.23637 30069 ft 486 kts 193°
2026-05-01 12:54 48.40518 8.21229 30391 ft 488 kts 193°
2026-05-01 12:54 48.37217 8.20020 30517 ft 489 kts 193°
2026-05-01 12:55 48.30658 8.17622 30755 ft 488 kts 193°
2026-05-01 12:55 48.27357 8.16418 30882 ft 488 kts 193°
2026-05-01 12:55 48.24088 8.15080 31004 ft 487 kts 199°
2026-05-01 12:56 48.20941 8.13216 31117 ft 487 kts 204°
2026-05-01 12:56 48.17891 8.11026 31247 ft 486 kts 207°
2026-05-01 12:56 48.14879 8.08704 31362 ft 486 kts 207°
2026-05-01 12:56 48.11889 8.06368 31485 ft 485 kts 207°
2026-05-01 12:57 48.08890 8.04051 31619 ft 484 kts 207°
2026-05-01 12:57 48.02881 7.99519 31862 ft 483 kts 206°
2026-05-01 12:57 47.99914 7.97316 31990 ft 483 kts 206°
2026-05-01 12:58 47.96903 7.95093 32116 ft 482 kts 206°
2026-05-01 12:58 47.93898 7.92879 32240 ft 482 kts 206°
2026-05-01 12:58 47.90895 7.90669 32374 ft 481 kts 206°
2026-05-01 12:59 47.84909 7.86270 32631 ft 479 kts 206°
2026-05-01 12:59 47.81918 7.84075 32761 ft 479 kts 206°
2026-05-01 12:59 47.75952 7.79704 33032 ft 478 kts 206°
2026-05-01 13:00 47.70031 7.75377 33300 ft 477 kts 206°
2026-05-01 13:00 47.67051 7.73203 33432 ft 477 kts 206°
2026-05-01 13:01 47.61093 7.68866 33701 ft 476 kts 206°
2026-05-01 13:01 47.58123 7.66708 33843 ft 475 kts 206°
2026-05-01 13:01 47.52193 7.62408 34105 ft 473 kts 206°
2026-05-01 13:02 47.49243 7.60276 34251 ft 471 kts 206°
2026-05-01 13:07 46.96936 7.01083 36291 ft 463 kts 231°
2026-05-01 13:07 46.94919 6.97408 36292 ft 462 kts 231°
2026-05-01 13:08 46.90906 6.90108 36292 ft 459 kts 231°
2026-05-01 13:08 46.86931 6.82898 36292 ft 458 kts 231°
2026-05-01 13:09 46.82929 6.75645 36292 ft 458 kts 231°
2026-05-01 13:09 46.78927 6.68402 36291 ft 458 kts 231°
2026-05-01 13:10 46.74924 6.61172 36287 ft 457 kts 231°
2026-05-01 13:10 46.70954 6.54023 36384 ft 455 kts 231°
2026-05-01 13:10 46.68963 6.50444 36497 ft 454 kts 231°
2026-05-01 13:11 46.66979 6.46883 36627 ft 452 kts 231°
2026-05-01 13:11 46.65031 6.43392 36757 ft 450 kts 231°
2026-05-01 13:11 46.63058 6.39858 36878 ft 449 kts 231°
2026-05-01 13:11 46.61088 6.36337 37012 ft 449 kts 231°
2026-05-01 13:12 46.59124 6.32829 37217 ft 447 kts 231°
2026-05-01 13:12 46.55165 6.25772 37269 ft 454 kts 231°
2026-05-01 13:13 46.51161 6.18654 37265 ft 455 kts 231°
2026-05-01 13:13 46.47178 6.11592 37263 ft 455 kts 231°
2026-05-01 13:14 46.43163 6.04490 37272 ft 455 kts 231°
2026-05-01 13:14 46.39149 5.97415 37268 ft 453 kts 231°
2026-05-01 13:15 46.35128 5.90413 37268 ft 452 kts 231°
2026-05-01 13:15 46.31145 5.83466 37260 ft 452 kts 231°
2026-05-01 13:16 46.27164 5.76505 37267 ft 452 kts 231°
2026-05-01 13:16 46.23158 5.69509 37263 ft 452 kts 231°
2026-05-01 13:17 46.15146 5.55569 37247 ft 450 kts 232°
2026-05-01 13:18 46.09640 5.45112 37263 ft 448 kts 237°
2026-05-01 13:18 46.06155 5.37762 37242 ft 447 kts 237°
2026-05-01 13:19 46.02644 5.30366 37246 ft 447 kts 237°
2026-05-01 13:20 45.97346 5.19325 37238 ft 447 kts 237°
2026-05-01 13:20 45.93807 5.11992 37236 ft 447 kts 237°
2026-05-01 13:21 45.88530 5.01093 37235 ft 445 kts 236°
2026-05-01 13:21 45.84989 4.93802 37229 ft 446 kts 236°
2026-05-01 13:22 45.81539 4.86715 37229 ft 446 kts 236°
2026-05-01 13:22 45.77984 4.79432 37237 ft 446 kts 236°
2026-05-01 13:23 45.74421 4.72153 37237 ft 446 kts 236°
2026-05-01 13:23 45.70859 4.64906 37228 ft 445 kts 236°
2026-05-01 13:24 45.67293 4.57745 37246 ft 445 kts 236°
2026-05-01 13:25 45.61912 4.46917 37232 ft 446 kts 236°
2026-05-01 13:25 45.58327 4.39697 37232 ft 446 kts 236°
2026-05-01 13:26 45.54737 4.32481 37230 ft 446 kts 236°
2026-05-01 13:26 45.51162 4.25330 37231 ft 445 kts 235°
2026-05-01 13:27 45.47553 4.18152 37245 ft 446 kts 235°
2026-05-01 13:27 45.42135 4.07379 37223 ft 446 kts 235°
2026-05-01 13:28 45.36733 3.96666 37241 ft 446 kts 235°
2026-05-01 13:29 45.29479 3.82342 37274 ft 448 kts 235°
2026-05-01 13:31 45.18662 3.60675 37239 ft 448 kts 236°
2026-05-01 13:32 45.09748 3.42627 37248 ft 449 kts 235°
2026-05-01 13:33 45.00774 3.24586 37252 ft 448 kts 235°
2026-05-01 13:34 44.93601 3.10247 37258 ft 448 kts 235°
2026-05-01 13:35 44.88212 2.99522 37262 ft 447 kts 234°
2026-05-01 13:36 44.82901 2.88726 37257 ft 447 kts 237°
2026-05-01 13:36 44.77847 2.77768 37260 ft 447 kts 237°
2026-05-01 13:37 44.74472 2.70428 37259 ft 447 kts 237°
2026-05-01 13:37 44.71086 2.63097 37266 ft 447 kts 237°
2026-05-01 13:38 44.65991 2.52119 37243 ft 447 kts 237°
2026-05-01 13:39 44.62586 2.44806 37265 ft 447 kts 237°
2026-05-01 13:39 44.59199 2.37548 37264 ft 448 kts 236°
2026-05-01 13:40 44.55786 2.30254 37259 ft 447 kts 236°
2026-05-01 13:40 44.52361 2.22951 37263 ft 449 kts 236°
2026-05-01 13:41 44.48922 2.15640 37244 ft 450 kts 236°
2026-05-01 13:41 44.45496 2.08373 37249 ft 450 kts 236°
2026-05-01 13:42 44.42044 2.01068 37230 ft 450 kts 236°
2026-05-01 13:42 44.38580 1.93786 37230 ft 449 kts 235°
2026-05-01 13:43 44.35101 1.86542 37236 ft 450 kts 235°
2026-05-01 13:43 44.31622 1.79274 37219 ft 450 kts 236°
2026-05-01 13:44 44.28204 1.72023 37230 ft 450 kts 236°
2026-05-01 13:44 44.24833 1.64664 37201 ft 450 kts 237°
2026-05-01 13:45 44.21470 1.57298 37219 ft 450 kts 237°
2026-05-01 13:45 44.18102 1.49950 37197 ft 450 kts 237°
2026-05-01 13:46 44.14722 1.42603 37199 ft 451 kts 237°
2026-05-01 13:46 44.11361 1.35316 37192 ft 451 kts 237°
2026-05-01 13:47 44.07971 1.27987 37208 ft 450 kts 237°
2026-05-01 13:47 44.04576 1.20666 37181 ft 450 kts 237°
2026-05-01 13:48 44.01176 1.13352 37198 ft 450 kts 237°
2026-05-01 13:48 43.97780 1.06063 37174 ft 450 kts 237°
2026-05-01 13:49 43.94399 0.98826 37195 ft 450 kts 237°
2026-05-01 13:49 43.90993 0.91554 37163 ft 450 kts 237°
2026-05-01 13:50 43.87012 0.84935 37183 ft 449 kts 224°
2026-05-01 13:50 43.82334 0.79186 37183 ft 450 kts 221°
2026-05-01 13:51 43.77602 0.73524 37165 ft 450 kts 222°
2026-05-01 13:51 43.72945 0.67834 37188 ft 450 kts 222°
2026-05-01 13:52 43.68278 0.62078 37176 ft 450 kts 222°
2026-05-01 13:52 43.63612 0.56323 37185 ft 450 kts 222°
2026-05-01 13:53 43.58943 0.50579 37167 ft 450 kts 222°
2026-05-01 13:53 43.51935 0.41984 37185 ft 449 kts 222°
2026-05-01 13:54 43.47294 0.36307 37174 ft 450 kts 222°
2026-05-01 13:54 43.42612 0.30594 37187 ft 450 kts 222°
2026-05-01 13:55 43.37912 0.24902 37180 ft 450 kts 222°
2026-05-01 13:55 43.33213 0.19220 37183 ft 450 kts 222°
2026-05-01 13:56 43.28520 0.13537 37185 ft 450 kts 222°
2026-05-01 13:56 43.23858 0.07899 37188 ft 450 kts 222°
2026-05-01 13:57 43.19950 0.03181 37184 ft 451 kts 222°
2026-05-01 13:57 43.14438 -0.03460 37186 ft 451 kts 222°
2026-05-01 13:58 43.09718 -0.09132 37183 ft 451 kts 222°
2026-05-01 13:58 43.05025 -0.14759 37189 ft 451 kts 222°
2026-05-01 13:59 43.00303 -0.20410 37195 ft 451 kts 222°
2026-05-01 13:59 42.95583 -0.26046 37205 ft 451 kts 222°
2026-05-01 14:00 42.90863 -0.31670 37200 ft 450 kts 222°
2026-05-01 14:00 42.86139 -0.37288 37196 ft 450 kts 222°
2026-05-01 14:01 42.81360 -0.42715 37206 ft 452 kts 214°
2026-05-01 14:01 42.75715 -0.46469 37199 ft 454 kts 202°
2026-05-01 14:02 42.69765 -0.49386 37196 ft 454 kts 201°
2026-05-01 14:02 42.63830 -0.52348 37195 ft 454 kts 202°
2026-05-01 14:03 42.57930 -0.55415 37198 ft 454 kts 202°
2026-05-01 14:03 42.52075 -0.58496 37201 ft 454 kts 202°
2026-05-01 14:04 42.46180 -0.61595 37184 ft 455 kts 202°
2026-05-01 14:04 42.41281 -0.64163 37184 ft 454 kts 202°
2026-05-01 14:05 42.34412 -0.67755 37180 ft 453 kts 202°
2026-05-01 14:05 42.28527 -0.70825 37182 ft 454 kts 202°
2026-05-01 14:06 42.22683 -0.73868 37180 ft 453 kts 202°
2026-05-01 14:06 42.16798 -0.76927 37172 ft 454 kts 202°
2026-05-01 14:07 42.10881 -0.79996 37171 ft 457 kts 202°
2026-05-01 14:08 42.01978 -0.84598 37169 ft 457 kts 202°
2026-05-01 14:08 41.96080 -0.87622 37166 ft 457 kts 202°
2026-05-01 14:09 41.90132 -0.90675 37162 ft 458 kts 202°
2026-05-01 14:09 41.84185 -0.93730 37159 ft 458 kts 202°
2026-05-01 14:10 41.79238 -0.96268 37159 ft 458 kts 202°
2026-05-01 14:10 41.73286 -0.99316 37159 ft 459 kts 203°
2026-05-01 14:11 41.66363 -1.02897 37157 ft 458 kts 206°
2026-05-01 14:11 41.58291 -1.09590 37157 ft 455 kts 217°
2026-05-01 14:12 41.54017 -1.13685 37155 ft 455 kts 217°
2026-05-01 14:12 41.48823 -1.18569 37161 ft 458 kts 217°
2026-05-01 14:13 41.43588 -1.23400 37153 ft 458 kts 217°
2026-05-01 14:13 41.38334 -1.28215 37162 ft 459 kts 217°
2026-05-01 14:14 41.33110 -1.32992 37154 ft 459 kts 217°
2026-05-01 14:14 41.27840 -1.37803 37160 ft 460 kts 217°
2026-05-01 14:15 41.22555 -1.42595 37163 ft 460 kts 217°
2026-05-01 14:15 41.17272 -1.47377 37165 ft 460 kts 217°
2026-05-01 14:16 41.11985 -1.52157 37158 ft 460 kts 217°
2026-05-01 14:16 41.06743 -1.56890 37163 ft 458 kts 217°
2026-05-01 14:17 41.01481 -1.61634 37164 ft 457 kts 217°
2026-05-01 14:17 40.96222 -1.66367 37170 ft 457 kts 217°
2026-05-01 14:18 40.90958 -1.71094 37173 ft 457 kts 217°
2026-05-01 14:18 40.85731 -1.75780 37173 ft 456 kts 217°
2026-05-01 14:19 40.80477 -1.80479 37176 ft 456 kts 217°
2026-05-01 14:19 40.75216 -1.85163 37174 ft 456 kts 217°
2026-05-01 14:20 40.67333 -1.92160 37179 ft 456 kts 216°
2026-05-01 14:21 40.62130 -1.96776 37188 ft 454 kts 216°
2026-05-01 14:21 40.56896 -2.01415 37180 ft 453 kts 216°
2026-05-01 14:22 40.49039 -2.08354 37183 ft 453 kts 216°
2026-05-01 14:22 40.43800 -2.12963 37184 ft 453 kts 216°
2026-05-01 14:23 40.38564 -2.17565 37173 ft 453 kts 216°
2026-05-01 14:23 40.33362 -2.22132 37177 ft 453 kts 216°
2026-05-01 14:24 40.28128 -2.26722 37177 ft 453 kts 216°
2026-05-01 14:24 40.22892 -2.31306 37151 ft 452 kts 216°
2026-05-01 14:25 40.17665 -2.35873 37175 ft 452 kts 216°
2026-05-01 14:25 40.12434 -2.40436 37175 ft 452 kts 216°
2026-05-01 14:26 40.04621 -2.47233 37171 ft 452 kts 216°
2026-05-01 14:27 39.99388 -2.51776 37160 ft 452 kts 217°
2026-05-01 14:27 39.94324 -2.56163 37088 ft 451 kts 217°
2026-05-01 14:28 39.89281 -2.60517 36549 ft 430 kts 217°
2026-05-01 14:28 39.86788 -2.62670 36293 ft 430 kts 217°
2026-05-01 14:28 39.84299 -2.64821 36041 ft 430 kts 217°
2026-05-01 14:28 39.81805 -2.66974 35793 ft 431 kts 217°
2026-05-01 14:29 39.79305 -2.69129 35539 ft 431 kts 217°
2026-05-01 14:29 39.76808 -2.71278 35286 ft 431 kts 217°
2026-05-01 14:30 39.69299 -2.77716 35153 ft 435 kts 217°
2026-05-01 14:30 39.66783 -2.79864 35153 ft 442 kts 217°
2026-05-01 14:31 39.58990 -2.86542 35151 ft 451 kts 217°
2026-05-01 14:31 39.53756 -2.91028 35128 ft 451 kts 217°
2026-05-01 14:32 39.48520 -2.95511 35133 ft 451 kts 217°
2026-05-01 14:32 39.43319 -2.99956 35133 ft 451 kts 217°
2026-05-01 14:33 39.37809 -3.03889 35132 ft 456 kts 207°
2026-05-01 14:33 39.31853 -3.06818 35123 ft 459 kts 204°
2026-05-01 14:34 39.25832 -3.09621 35125 ft 461 kts 205°
2026-05-01 14:34 39.19821 -3.12497 35125 ft 461 kts 206°
2026-05-01 14:35 39.13861 -3.15392 35122 ft 461 kts 206°
2026-05-01 14:35 39.07881 -3.18301 35108 ft 461 kts 206°
2026-05-01 14:36 39.01876 -3.21217 35121 ft 462 kts 206°
2026-05-01 14:36 38.95863 -3.24122 35121 ft 462 kts 206°
2026-05-01 14:37 38.89889 -3.27003 35121 ft 462 kts 206°
2026-05-01 14:37 38.83872 -3.29904 35101 ft 462 kts 207°
2026-05-01 14:38 38.77852 -3.32803 35120 ft 462 kts 207°
2026-05-01 14:38 38.71825 -3.35700 35121 ft 462 kts 207°
2026-05-01 14:39 38.65841 -3.38571 35123 ft 463 kts 207°
2026-05-01 14:39 38.59811 -3.41459 35107 ft 463 kts 207°
2026-05-01 14:40 38.53785 -3.44339 35113 ft 461 kts 208°
2026-05-01 14:40 38.47792 -3.47196 35115 ft 459 kts 208°
2026-05-01 14:41 38.41852 -3.50027 35119 ft 459 kts 208°
2026-05-01 14:41 38.35869 -3.52874 35119 ft 460 kts 208°
2026-05-01 14:42 38.29882 -3.55716 35120 ft 459 kts 208°
2026-05-01 14:42 38.23897 -3.58552 35119 ft 459 kts 207°
2026-05-01 14:43 38.17910 -3.61371 35114 ft 459 kts 207°
2026-05-01 14:43 38.11967 -3.64168 35106 ft 458 kts 208°
2026-05-01 14:44 38.06115 -3.67266 35111 ft 454 kts 212°
2026-05-01 14:44 37.97498 -3.72231 35114 ft 453 kts 212°
2026-05-01 14:45 37.88874 -3.77168 35099 ft 454 kts 212°
2026-05-01 14:46 37.83160 -3.80413 35114 ft 453 kts 212°
2026-05-01 14:46 37.74567 -3.85279 35116 ft 448 kts 212°
2026-05-01 14:47 37.68879 -3.88496 35118 ft 448 kts 212°
2026-05-01 14:48 37.60360 -3.93305 35125 ft 447 kts 212°
2026-05-01 14:48 37.51880 -3.98080 35116 ft 447 kts 212°
2026-05-01 14:49 37.40528 -4.04452 35116 ft 447 kts 212°
2026-05-01 14:50 37.29212 -4.10764 35134 ft 447 kts 212°
2026-05-01 14:51 37.20671 -4.15516 35149 ft 447 kts 212°
2026-05-01 14:52 37.12138 -4.20263 35154 ft 448 kts 212°
2026-05-01 14:53 37.03638 -4.24981 35163 ft 447 kts 212°
2026-05-01 14:53 36.97945 -4.28135 35166 ft 448 kts 212°
2026-05-01 14:54 36.92259 -4.31279 35168 ft 446 kts 212°
2026-05-01 14:54 36.86567 -4.34423 35171 ft 448 kts 212°
2026-05-01 14:55 36.80908 -4.37546 35178 ft 447 kts 213°
2026-05-01 14:55 36.75523 -4.41271 35184 ft 440 kts 220°
2026-05-01 14:56 36.70401 -4.45414 35183 ft 438 kts 221°
2026-05-01 14:56 36.65291 -4.49571 35175 ft 439 kts 220°
2026-05-01 14:57 36.60156 -4.53690 35181 ft 439 kts 220°
2026-05-01 14:57 36.52466 -4.59805 35171 ft 438 kts 219°
2026-05-01 14:58 36.47334 -4.63874 35157 ft 437 kts 219°
2026-05-01 14:58 36.42210 -4.67933 35171 ft 437 kts 219°
2026-05-01 14:59 36.37078 -4.71994 35161 ft 438 kts 219°
2026-05-01 14:59 36.31968 -4.76029 35160 ft 438 kts 219°
2026-05-01 15:00 36.24247 -4.82114 35157 ft 438 kts 219°
2026-05-01 15:01 36.19096 -4.86165 35160 ft 439 kts 219°
2026-05-01 15:01 36.13941 -4.90215 35139 ft 439 kts 218°
2026-05-01 15:02 36.08815 -4.94254 35151 ft 440 kts 219°
2026-05-01 15:02 36.03665 -4.98323 35153 ft 439 kts 218°
2026-05-01 15:03 35.98524 -5.02383 35155 ft 438 kts 218°
2026-05-01 15:03 35.93384 -5.06438 35155 ft 438 kts 218°
2026-05-01 15:04 35.88245 -5.10485 35155 ft 438 kts 218°
2026-05-01 15:04 35.83132 -5.14487 35143 ft 439 kts 217°
2026-05-01 15:05 35.77919 -5.18415 35138 ft 439 kts 217°
2026-05-01 15:05 35.72709 -5.22295 35135 ft 439 kts 217°
2026-05-01 15:06 35.67484 -5.26188 35130 ft 439 kts 217°
2026-05-01 15:06 35.62260 -5.30082 35120 ft 439 kts 217°
2026-05-01 15:07 35.57095 -5.34007 35123 ft 438 kts 219°
2026-05-01 15:07 35.52153 -5.38305 35131 ft 434 kts 221°
2026-05-01 15:08 35.47301 -5.42702 35130 ft 433 kts 221°
2026-05-01 15:08 35.42443 -5.47082 35127 ft 433 kts 221°
2026-05-01 15:09 35.37607 -5.51412 35122 ft 433 kts 221°
2026-05-01 15:09 35.32728 -5.55765 35128 ft 434 kts 221°
2026-05-01 15:10 35.27840 -5.60119 35121 ft 434 kts 221°
2026-05-01 15:10 35.20506 -5.66638 35118 ft 434 kts 221°
2026-05-01 15:11 35.13203 -5.73115 35117 ft 433 kts 221°
2026-05-01 15:12 35.08327 -5.77432 35110 ft 434 kts 220°
2026-05-01 15:12 35.00989 -5.83917 35116 ft 434 kts 220°
2026-05-01 15:14 34.88781 -5.94662 35109 ft 434 kts 220°
2026-05-01 15:14 34.81657 -6.01431 35103 ft 433 kts 224°
2026-05-01 15:15 34.72412 -6.10737 35107 ft 433 kts 224°
2026-05-01 15:16 34.63121 -6.20011 35099 ft 432 kts 224°
2026-05-01 15:18 34.51489 -6.31515 35102 ft 435 kts 220°
2026-05-01 15:19 34.39950 -6.36777 35100 ft 451 kts 200°
2026-05-01 15:19 34.30870 -6.39754 35080 ft 450 kts 202°
2026-05-01 15:20 34.21902 -6.42903 35051 ft 446 kts 202°
2026-05-01 15:20 34.18945 -6.43945 34348 ft 441 kts 202°
2026-05-01 15:21 34.16017 -6.44978 33598 ft 435 kts 202°
2026-05-01 15:21 34.13140 -6.45991 32935 ft 428 kts 202°
2026-05-01 15:21 34.10288 -6.46997 32346 ft 427 kts 202°
2026-05-01 15:21 34.07431 -6.48008 31770 ft 428 kts 202°
2026-05-01 15:22 34.01694 -6.50034 30622 ft 432 kts 202°
2026-05-01 15:22 33.98856 -6.51070 30027 ft 432 kts 205°
2026-05-01 15:22 33.96150 -6.52562 29375 ft 425 kts 217°
2026-05-01 15:23 33.93814 -6.54701 28806 ft 421 kts 226°
2026-05-01 15:23 33.91709 -6.57152 28205 ft 422 kts 229°
2026-05-01 15:23 33.89676 -6.59704 27641 ft 423 kts 230°
2026-05-01 15:23 33.87638 -6.62275 27070 ft 425 kts 229°
2026-05-01 15:24 33.85575 -6.64832 26478 ft 427 kts 229°
2026-05-01 15:24 33.83490 -6.67364 25893 ft 425 kts 228°
2026-05-01 15:24 33.81400 -6.69864 25332 ft 422 kts 228°
2026-05-01 15:24 33.79346 -6.72300 24769 ft 419 kts 228°
2026-05-01 15:25 33.77273 -6.74746 24222 ft 416 kts 228°
2026-05-01 15:25 33.75212 -6.77175 23664 ft 414 kts 228°
2026-05-01 15:25 33.73160 -6.79592 23034 ft 411 kts 227°
2026-05-01 15:25 33.71124 -6.81987 22397 ft 408 kts 227°
2026-05-01 15:26 33.69108 -6.84359 21793 ft 404 kts 227°
2026-05-01 15:26 33.67106 -6.86711 21191 ft 401 kts 227°
2026-05-01 15:26 33.64977 -6.88858 20592 ft 401 kts 216°
2026-05-01 15:26 33.62512 -6.90368 20021 ft 396 kts 205°
2026-05-01 15:27 33.59978 -6.91453 19461 ft 388 kts 201°
2026-05-01 15:27 33.57423 -6.92401 18907 ft 381 kts 200°
2026-05-01 15:27 33.54913 -6.93313 18352 ft 373 kts 200°
2026-05-01 15:28 33.50034 -6.95152 17106 ft 364 kts 201°
2026-05-01 15:28 33.47639 -6.96085 16491 ft 360 kts 201°
2026-05-01 15:28 33.45268 -6.97020 15907 ft 357 kts 201°
2026-05-01 15:29 33.40615 -6.98866 14770 ft 352 kts 201°
2026-05-01 15:29 33.38305 -6.99785 14214 ft 349 kts 200°
2026-05-01 15:29 33.33738 -7.01601 13019 ft 343 kts 200°
2026-05-01 15:30 33.29432 -7.03311 12102 ft 328 kts 200°
2026-05-01 15:31 33.21230 -7.06721 10728 ft 295 kts 208°
2026-05-01 15:31 33.18335 -7.09830 10285 ft 274 kts 238°
2026-05-01 15:32 33.17156 -7.14108 9427 ft 274 kts 257°
2026-05-01 15:32 33.16504 -7.18563 8605 ft 271 kts 257°
2026-05-01 15:33 33.15522 -7.25141 7379 ft 268 kts 257°
2026-05-01 15:34 33.14526 -7.31644 6474 ft 255 kts 256°